Location: Ciserano
(45.5833°N, 9.6000°E)
Time: 06:09:37
(UTC+00:00)

Cosmos 1812 Rocket - Visible Passes

Search period start: 21 June 2021 00:00
Search period end: 01 July 2021 00:00
Orbit: 604 x 633 km, 82.5° (Epoch: 20 June)

Date Brightness Start Highest point End Pass type
(mag) Time Alt. Az. Time Alt. Az. Time Alt. Az.
21 Jun 5.8 00:33:49 10° WNW 00:35:43 13° W 00:36:30 12° W visible
21 Jun 5.9 21:35:23 10° NE 21:37:18 13° ENE 21:39:12 10° E visible
21 Jun 3.6 23:11:20 10° NNW 23:15:41 70° W 23:16:27 56° SSW visible
22 Jun 5.3 21:51:28 10° NNE 21:54:50 21° ENE 21:56:25 18° E visible
22 Jun 4.3 23:28:47 10° NNW 23:32:50 38° W 23:33:34 35° WSW visible
23 Jun 4.5 22:08:12 10° N 22:12:17 36° ENE 22:13:33 30° ESE visible
23 Jun 5.2 23:46:34 10° NW 23:49:54 22° W 23:50:41 21° WSW visible
24 Jun 3.6 22:25:14 10° N 22:29:37 66° E 22:30:41 48° SE visible
25 Jun 5.9 00:05:06 10° WNW 00:06:52 12° W 00:07:49 12° W visible
25 Jun 5.8 21:06:24 10° NE 21:08:29 13° ENE 21:10:35 10° E visible
25 Jun 3.6 22:42:29 10° NNW 22:46:51 67° W 22:47:49 50° SSW visible
26 Jun 5.2 21:22:35 10° NNE 21:26:01 22° ENE 21:27:50 17° ESE visible
26 Jun 4.5 22:59:58 10° NNW 23:04:00 36° W 23:04:59 32° WSW visible
27 Jun 4.4 21:39:21 10° N 21:43:27 38° ENE 21:45:00 28° ESE visible
27 Jun 5.3 23:17:47 10° NW 23:21:03 21° W 23:22:09 19° WSW visible
28 Jun 3.6 21:56:23 10° N 22:00:47 69° E 22:02:11 41° SSE visible
28 Jun 6.0 23:36:25 10° WNW 23:38:01 12° W 23:39:20 11° W visible
29 Jun 5.7 20:37:25 10° NE 20:39:42 14° ENE 20:41:57 10° E visible
29 Jun 3.7 22:13:39 10° NNW 22:18:01 65° W 22:19:23 41° SSW visible
30 Jun 5.1 20:53:40 10° NNE 20:57:13 23° ENE 20:59:26 16° ESE visible
30 Jun 4.7 22:31:09 10° NNW 22:35:09 35° W 22:36:35 28° SW visible
